62P/Tsuchinshan 1 (2017)

Japanese version
Home page
Updated on May 21, 2018

---------------------------------------------------------------------

* Profile

* Pictures

* Orbital Elements

Epoch 2017 Nov. 23.0 TT = JDT 2458080.5
T 2017 Nov. 16.12002 TT                                 MPCW
q   1.3838063            (2000.0)            P               Q
n   0.15463662     Peri.   30.34986     -0.50170211     -0.84844637
a   3.4376460      Node    90.24322     +0.75590836     -0.52477568
e   0.5974553      Incl.    9.70786     +0.42059190     -0.06891481
P   6.37
From 1173 observations 2004 Sept. 14-2018 Feb. 24, mean residual 0".7.
     Nongravitational parameters A1 = +0.76, A2 = -0.0899.

* Finding Charts

* Magnitudes Graph

        m1 =  9.5 + 5 log d + 30.0 log r  [   ,-78]  (             - 2017 Aug. 30)
        m1 = -2.2 + 5 log d + 85   log r  [-78,  0]  (2017 Aug. 30 - 2017 Nov. 16)
        m1 =  5.5 + 5 log d + 30.0 log r  [  0,   ]  (2017 Nov. 16 -              )

---------------------------------------------------------------------

The orbital elements are published on M.P.E.C. 2018-D91.
The charts are made with StellaNavigator Ver.8 (AstroArts).
The magnitudes graphs are made with Comet for Windows.

---------------------------------------------------------------------

Copyright(C) Seiichi Yoshida (comet@aerith.net). All rights reserved.